Retour au catalogue

STARLINK-34024

ActifCommunicationsVLEO
NORAD 64031·PAYLOAD·🇺🇸 United States

Lancé May 16, 2025 depuis Vandenberg Space Force Base

Loading…

Prochains Passages (prochaines 24 heures)

TLE

FraisSource: CelesTrak SupGP

Époque: Sep 14, 2026, 21:10 UTC

1 64031C 25102K   26257.88243056 -.00034138  00000+0 -11577-2 0  2572
2 64031  70.0011 355.9400 0003342 273.4673 272.8296 15.30422661    12

Suivez STARLINK-34024 en temps réel avec AllMySat

Download on the App Store